Regional Weather Roundup
Issued by NWS Cleveland, OH

Home | Current Version | Previous Version | Text Only | Print | Product List | Glossary Off
Versions: 1 2 3 4 5 6 7 8 9 10 11 12 13 14 15 16 17 18 19 20 21 22 23 24 25 26 27 28 29 30 31 32 33 34 35 36 37 38 39 40 41 42 43 44 45 46 47 48 49 50

000
ASUS41 KCLE 200702
RWRCLE
OHIO REGIONAL WEATHER ROUNDUP
NATIONAL WEATHER SERVICE CLEVELAND, OH
300 AM EDT WED AUG 20 2014

NOTE: "FAIR" INDICATES FEW OR NO CLOUDS BELOW 12,000 FEET WITH NO
SIGNIFICANT WEATHER AND/OR OBSTRUCTIONS TO VISIBILITY.

OHZ001>008-015>018-024>027-034-035-043-044-200800-
   NORTHWEST OHIO

CITY           SKY/WX    TMP DP  RH WIND       PRES   REMARKS
DEFIANCE       CLOUDY    69  65  86 SW5       29.79R
FINDLAY        LGT RAIN  67  63  87 S9        29.79F
TOLEDO EXPRESS CLOUDY    65  65 100 CALM      29.78F
TOLEDO EXEC    CLOUDY    67  63  87 S3        29.80S
LIMA             N/A    N/A N/A N/A MISG      29.81F
$$

OHZ009>014-019>023-028>033-038-089-200800-
   NORTHEAST OHIO

CITY           SKY/WX    TMP DP  RH WIND       PRES   REMARKS
CLE-HOPKINS    CLOUDY    67  65  93 S10       29.85S
CLE-LAKEFRONT  CLOUDY    69  65  86 S14G21    29.81F
CUY CO. ARPT   NOT AVBL
LORAIN-ELYRIA  CLOUDY    70  65  84 S7        29.82F
ASHTABULA      CLOUDY    65  63  93 SE10      29.85F
AKRON-CANTON   TSTM      67  63  87 NW3       29.91R FOG
WOOSTER        CLOUDY    66  64  93 E6        29.85F FOG
MANSFIELD      MOCLDY    67  66  97 E3        29.84F
YOUNGSTOWN     TSTM      65  63  93 SE7       29.87F
$$

OHZ042-051>053-060>062-070>072-077>081-200800-
  SOUTHWEST OHIO

CITY           SKY/WX    TMP DP  RH WIND       PRES   REMARKS
CINC-COVINGTON CLOUDY    67  65  93 SW3       29.89F THUNDER
CINC-LUNKEN    CLOUDY    66  64  93 SE7       29.85F
HAMILTON       LGT RAIN  66  65  96 CALM      29.85F
DAYTON         TSTM      73  67  81 SW12      29.84R
WRIGHT-PAT AFB TSTM      74  69  85 S10       29.83R
DAYTON GENERAL LGT RAIN  68  64  87 S12       29.83F
WILMINGTON     TSTM      69  64  84 SW17G32   29.87R
$$

OHZ036-037-039>041-045>050-054>059-063>069-073>076-082>088-200800-
  CENTRAL AND SOUTHEAST OHIO

CITY           SKY/WX    TMP DP  RH WIND       PRES   REMARKS
COLUMBUS       CLOUDY    77  68  73 S8        29.81F
OSU AIRPORT    MOCLDY    74  68  81 SE3       29.81F
BOLTON FIELD   MOCLDY    71  70  96 S7        29.82F FOG
RICKENBACK AFB MOCLDY    73  65  76 SE3       29.81F HAZE
NEWARK         CLOUDY    71  69  93 CALM      29.82F FOG
MARION         MOCLDY    69  64  84 SE7       29.82F
LANCASTER      CLOUDY    74  69  85 S5        29.83F
ZANESVILLE     CLOUDY    74  69  85 S6        29.83F THUNDER
NEW PHILLY     CLOUDY    66  65  96 MISG      29.85F
$$



USA.gov is the U.S. government's official web portal to all federal, state and local government web resources and services.